This demonstration page uses our WeatherBlox Daily Observations layout. Learn more.

Left ArrowRight Arrow

36.19886, -115.1175

Hourly Observations for December 4, 2020

Temp ( °F °C ) Dew Point ( °F °C ) Humidity (%) Winds ( mph kmh ) Pressure ( in mb ) Visibility ( mi km ) Precip ( " mm )
12:53 am 00:53 Clear 39 3.9 9 -12.8 29 29 W 8 13 30.38 1029 10 16.0934 0 0
1:53 am 01:53 Clear 37 2.8 8 -13.3 30 30 WNW 6 9 30.38 1029 10 16.0934 0 0
2:53 am 02:53 Clear 37 2.8 6 -14.4 27 27 WNW 6 9 30.37 1028 10 16.0934 0 0
3:53 am 03:53 Clear 37 2.8 7 -13.9 28 28 W 6 9 30.36 1028 10 16.0934 0 0
4:53 am 04:53 Clear 38 3.3 4 -15.6 24 24 W 8 13 30.36 1028 10 16.0934 0 0
5:53 am 05:53 Clear 35 1.7 1 -17.2 23 23 NW 3 6 30.37 1029 10 16.0934 0 0
6:53 am 06:53 Sunny 34 1.1 6 -14.4 31 31 NNE 3 6 30.38 1029 10 16.0934 0 0
7:53 am 07:53 Sunny 40 4.4 5 -15 23 23 Calm 30.38 1029 10 16.0934 0 0
8:53 am 08:53 Sunny 48 8.9 -1 -18.3 13 13 N 3 6 30.38 1029 10 16.0934 0 0
9:53 am 09:53 Sunny 52 11.1 -1 -18.3 11 11 NNW 5 7 30.37 1028 10 16.0934 0 0
10:53 am 10:53 Sunny 54 12.2 0 -17.8 11 11 E 5 7 30.33 1027 10 16.0934 0 0
11:53 am 11:53 Sunny 55 12.8 -1 -18.3 10 10 SE 3 6 30.31 1026 10 16.0934 0 0
12:53 pm 12:53 Sunny 57 13.9 -2 -18.9 9 9 Calm 30.27 1025 10 16.0934 0 0
1:53 pm 13:53 Sunny 58 14.4 -2 -18.9 8 8 S 3 6 30.25 1024 10 16.0934 0 0
2:53 pm 14:53 Sunny 60 15.6 -1 -18.3 8 8 Calm 30.24 1024 10 16.0934 0 0
3:53 pm 15:53 Sunny 61 16.1 -1 -18.3 8 8 Calm 30.24 1024 10 16.0934 0 0
4:53 pm 16:53 Clear 56 13.3 0 -17.8 10 10 Calm 30.24 1024 10 16.0934 0 0
5:53 pm 17:53 Clear 50 10 6 -14.4 17 17 WNW 5 7 30.26 1025 10 16.0934 0 0
6:53 pm 18:53 Clear 47 8.3 12 -11.1 24 24 W 6 9 30.28 1025 10 16.0934 0 0
7:53 pm 19:53 Clear 45 7.2 11 -11.7 25 25 NW 5 7 30.28 1026 10 16.0934 0 0
8:53 pm 20:53 Clear 42 5.6 9 -12.8 25 25 WNW 5 7 30.29 1026 10 16.0934 0 0
9:53 pm 21:53 Clear 42 5.6 11 -11.7 28 28 NW 3 6 30.3 1026 10 16.0934 0 0
10:53 pm 22:53 Clear 40 4.4 9 -12.8 28 28 WNW 8 13 30.32 1027 10 16.0934 0 0
11:53 pm 23:53 Clear 39 3.9 6 -14.4 25 25 WNW 6 9 30.32 1027 10 16.0934 0 0

Powered by AerisWeather